[[{"header":{"parameterUnit":"m.s-1","parameterCategory":1,"la1":30.2991,"la2":30.254,"lo1":-89.0895,"lo2":-89.0444,"dy":0.0017,"dx":0.0017,"nx":28,"ny":28,"refTime":"2024-06-23T09:00:00:Z","depth":0,"parameterNumber":2,"parameterNumberName":"U-component_of_WINDS"},"data":[0,0,0,0,0,0,0,0,0,0,0,0,0,0,0,0,0,0,0,0,0,0,0,0,0,0,0,0,0,0,0,0,0,0,0,0,0,0,0,0,0,0,0,0,0,0,0,0,0,0,0,0,0,0,0,0,0,0,0.3907,0.3908,0,0.399,0.3991,0.3992,0.3964,0.3962,0.3961,0.3959,0.4049,0.4053,0.4057,0,0,0,0,0,0,0,0,0,0,0,0,0,0.3727,0.373,0.3907,0.3908,0.3909,0.399,0.3991,0.3992,0.3964,0.3962,0.396,0.3958,0.4048,0.4053,0.4058,0,0,0,0,0,0,0,0,0,0,0,0,0,0.3807,0.3731,0.3907,0.3905,0.3905,0.399,0.3991,0.3993,0.3965,0.3962,0.3959,0.3957,0.4046,0.4052,0.4058,0.4151,0,0,0.4077,0.408,0,0,0,0,0,0,0,0,0.3803,0.3814,0.3904,0.3905,0.3906,0.3964,0.3961,0.4046,0.3966,0.3943,0.3959,0.3956,0.4023,0.4031,0.4053,0.4155,0.4159,0.4078,0.4081,0.4084,0.4086,0,0,0,0,0,0,0,0.3797,0.381,0.394,0.3905,0.3907,0.3901,0.3909,0.3977,0.3998,0.3944,0.3942,0.3952,0.4023,0.4047,0.4055,0.4161,0.4078,0.4083,0.4087,0.4089,0.4341,0.4344,0,0,0,0,0,0,0.379,0.3806,0.3937,0.3942,0.3846,0.3906,0.3915,0.3948,0.3997,0.4001,0.3955,0.3951,0.4038,0.4048,0.4058,0.4168,0.4084,0.409,0.4093,0.4338,0.4342,0.4345,0,0,0,0,0,0,0.3787,0.3802,0.3934,0.3873,0.389,0.3912,0.3949,0.3951,0.3975,0.4004,0.4008,0.3975,0.4036,0.4049,0.4127,0.4171,0.4093,0.4098,0.4335,0.4339,0.4343,0.4391,0,0,0,0,0,0,0.3782,0.3801,0.3836,0.3874,0.3893,0.4001,0.3952,0.3955,0.3985,0.3981,0.4024,0.4029,0.4035,0.4118,0.4133,0.4178,0.4103,0.4331,0.4337,0.4342,0.4386,0.4397,0.4406,0,0,0,0,0,0.3775,0.3848,0.3838,0.3854,0.3937,0.4004,0.4015,0.4018,0.3989,0.4024,0.4043,0.4028,0.4164,0.4127,0.4143,0.4191,0.4328,0.4335,0.4342,0.4381,0.4394,0.4406,0,0,0,0,0,0,0.3817,0.3853,0.3843,0.393,0.3963,0.3999,0.4044,0.4033,0.4077,0.4072,0.4076,0.4086,0.4166,0.4186,0.4144,0.4282,0.4242,0.4252,0.4266,0.4279,0.4289,0.4282,0.4108,0,0,0,0,0,0.3835,0.3885,0.3915,0.3989,0.4006,0.4022,0.4052,0.4051,0.4087,0.4102,0.4126,0.4163,0.4214,0.4247,0.4296,0.4388,0.4397,0.4429,0.4439,0.4447,0.4456,0.4505,0.4519,0.4367,0.4367,0.4367,0,0,0.3876,0.3902,0.3934,0.3998,0.4024,0.4076,0.4035,0.4092,0.4131,0.4111,0.4186,0.4205,0.4246,0.4331,0.4369,0.435,0.45,0.4456,0.4462,0.4467,0.4513,0.4527,0.454,0.4372,0.4371,0.437,0,0,0.3976,0.4001,0.4064,0.409,0.413,0.4139,0.4154,0.4191,0.4202,0.4276,0.4262,0.4309,0.4397,0.4426,0.4452,0.456,0.4547,0.4576,0.4629,0.4676,0.4688,0.4699,0.4736,0.4749,0.4585,0.4585,0.4585,0,0.4022,0.4098,0.4099,0.4156,0.4185,0.4167,0.4231,0.4257,0.4311,0.4331,0.4308,0.4416,0.4443,0.4533,0.4559,0.4581,0.4599,0.4571,0.4686,0.4697,0.4707,0.4742,0.4756,0.4588,0.4588,0.4587,0.4587,0,0.4152,0.4205,0.4252,0.4302,0.4335,0.4396,0.4406,0.444,0.4436,0.4449,0.4523,0.4554,0.4607,0.4629,0.4627,0.4719,0.4705,0.4684,0.4644,0.4724,0.4758,0.4771,0.4592,0.4591,0.459,0.459,0,0,0.4282,0.4329,0.4346,0.4367,0.4408,0.445,0.451,0.456,0.4588,0.4626,0.4676,0.4749,0.4729,0.4759,0.4759,0.4801,0.4882,0.4774,0.4775,0.4793,0.4984,0.4999,0.5015,0.4874,0.4876,0.4879,0.498,0,0.4384,0.4487,0.4488,0.4583,0.4632,0.4615,0.4666,0.4697,0.471,0.4753,0.4768,0.4819,0.4789,0.4807,0.4847,0.4864,0.4921,0.4857,0.4921,0.4923,0.491,0.5032,0.5049,0.5143,0.4993,0.4995,0.4997,0,0.4518,0.4557,0.4656,0.4688,0.4708,0.4755,0.4799,0.4841,0.4876,0.4882,0.4914,0.4907,0.4968,0.4925,0.5009,0.4965,0.4991,0.5003,0.5007,0.5013,0.4965,0.5041,0.5174,0.5187,0.5018,0.5016,0.5015,0,0.4601,0.4679,0.4748,0.4767,0.4806,0.4838,0.4856,0.4888,0.4917,0.4957,0.4975,0.5022,0.5048,0.5084,0.5091,0.5059,0.5174,0.5132,0.5181,0.5181,0.5206,0.5205,0.5344,0.5224,0.5224,0.5223,0.5223,0,0.4715,0.4777,0.4785,0.4828,0.4895,0.4896,0.4963,0.4979,0.5006,0.5051,0.504,0.5083,0.5089,0.5133,0.5139,0.5206,0.5219,0.5225,0.5226,0.5226,0.5225,0.5243,0.5236,0.5227,0.5226,0.5226,0.5225,0,0.482,0.4828,0.4902,0.4932,0.4941,0.4989,0.5015,0.5056,0.5066,0.5123,0.5137,0.5153,0.5204,0.5214,0.5276,0.5279,0.5359,0.5354,0.5347,0.5346,0.5394,0.5389,0.555,0.557,0.5437,0.5439,0.544,0,0.4892,0.4938,0.4972,0.5001,0.502,0.5066,0.5095,0.5097,0.5128,0.5169,0.5204,0.5254,0.5294,0.5377,0.5395,0.5441,0.5436,0.5489,0.5443,0.5441,0.5436,0.5433,0.5437,0.5498,0.55,0.5501,0.5502,0,0.5019,0.502,0.5061,0.5104,0.5138,0.5172,0.5205,0.5229,0.5235,0.527,0.5321,0.5352,0.5413,0.5462,0.5508,0.5527,0.5515,0.5516,0.5529,0.553,0.5523,0.5526,0.537,0.5512,0.5511,0.5511,0.551,0.551,0.5109,0.5148,0.5177,0.5224,0.5247,0.5277,0.5316,0.533,0.5372,0.5421,0.5419,0.5475,0.5507,0.5566,0.5588,0.5632,0.5615,0.5635,0.564,0.5645,0.5649,0.5516,0.5641,0.564,0.564,0.564,0.564,0,0.5233,0.5251,0.5293,0.5337,0.5373,0.5357,0.5392,0.5423,0.5472,0.5502,0.554,0.5598,0.5645,0.5665,0.5712,0.5743,0.5738,0.5755,0.5752,0.5756,0.5662,0.5645,0.5757,0.5757,0.5757,0.5757,0.5757,0.5757,0.5302,0.5368,0.5372,0.5449,0.5466,0.552,0.554,0.5567,0.5591,0.5655,0.5693,0.5706,0.5732,0.5779,0.5821,0.5826,0.5843,0.5862,0.5864,0.5775,0.5763,0.5752,0.5736,0.5866,0.5866,0.5955,0.5956,0.5956]},{"header":{"parameterUnit":"m.s-1","parameterCategory":1,"la1":30.2991,"la2":30.254,"lo1":-89.0895,"lo2":-89.0444,"dy":0.0017,"dx":0.0017,"nx":28,"ny":28,"refTime":"2024-06-23T09:00:00:Z","depth":0,"parameterNumber":3,"parameterNumberName":"V-component_of_WINDS"},"data":[0,0,0,0,0,0,0,0,0,0,0,0,0,0,0,0,0,0,0,0,0,0,0,0,0,0,0,0,0,0,0,0,0,0,0,0,0,0,0,0,0,0,0,0,0,0,0,0,0,0,0,0,0,0,0,0,0,0,2.9122,2.9122,0,2.9172,2.9173,2.9174,2.9166,2.9165,2.9164,2.9164,2.9214,2.9216,2.9218,0,0,0,0,0,0,0,0,0,0,0,0,0,2.9012,2.9014,2.9122,2.9122,2.9123,2.9172,2.9173,2.9174,2.9166,2.9165,2.9164,2.9163,2.9213,2.9216,2.9218,0,0,0,0,0,0,0,0,0,0,0,0,0,2.9061,2.9015,2.9122,2.9125,2.9126,2.9172,2.9173,2.9174,2.9166,2.9165,2.9164,2.9163,2.9212,2.9215,2.9218,2.9264,0,0,2.9228,2.923,0,0,0,0,0,0,0,0,2.9058,2.9065,2.9124,2.9125,2.9126,2.9162,2.9153,2.9204,2.9167,2.9151,2.9164,2.9162,2.9197,2.9202,2.9214,2.9266,2.9268,2.9228,2.923,2.9232,2.9233,0,0,0,0,0,0,0,2.9055,2.9063,2.9142,2.9125,2.9126,2.9122,2.9128,2.9162,2.9181,2.9152,2.9152,2.9158,2.9198,2.9211,2.9215,2.9269,2.9228,2.9231,2.9233,2.9234,2.9353,2.9354,0,0,0,0,0,0,2.9051,2.906,2.914,2.9143,2.9088,2.9125,2.9131,2.9151,2.918,2.9183,2.9159,2.9158,2.9206,2.9211,2.9217,2.9267,2.9232,2.9235,2.9237,2.9352,2.9354,2.9355,0,0,0,0,0,0,2.9049,2.9058,2.9138,2.9101,2.9111,2.9128,2.9151,2.9153,2.9166,2.9185,2.9188,2.917,2.9205,2.9212,2.9251,2.9269,2.9236,2.9239,2.9351,2.9352,2.9354,2.9371,0,0,0,0,0,0,2.9046,2.9057,2.9077,2.9102,2.9113,2.9173,2.9152,2.9155,2.9172,2.9171,2.9196,2.9199,2.9205,2.9246,2.9254,2.9273,2.9242,2.9349,2.9351,2.9354,2.9369,2.9373,2.9377,0,0,0,0,0,2.9042,2.9081,2.9078,2.9088,2.9138,2.9174,2.9181,2.9187,2.9174,2.9192,2.9203,2.9198,2.9266,2.925,2.9259,2.9279,2.9348,2.9351,2.9353,2.9367,2.9372,2.9377,0,0,0,0,0,0,2.9059,2.9084,2.9082,2.913,2.915,2.9173,2.9197,2.9193,2.9217,2.9215,2.922,2.9226,2.9264,2.9275,2.9257,2.932,2.9305,2.9309,2.9312,2.9317,2.9321,2.9317,2.9244,0,0,0,0,0,2.9068,2.9096,2.9117,2.9158,2.9168,2.918,2.9196,2.9199,2.9219,2.9228,2.9242,2.9261,2.9285,2.9302,2.9327,2.937,2.9373,2.9388,2.9392,2.9395,2.9399,2.9417,2.9422,2.9364,2.9364,2.9364,0,0,2.9088,2.9105,2.9123,2.9161,2.9177,2.9203,2.9187,2.9218,2.9237,2.9232,2.9268,2.9279,2.93,2.9339,2.9358,2.935,2.9415,2.9399,2.9401,2.9403,2.942,2.9426,2.9431,2.9366,2.9366,2.9365,0,0,2.9137,2.9155,2.9188,2.9203,2.9225,2.9232,2.924,2.9262,2.9269,2.9305,2.93,2.9321,2.9366,2.9379,2.9392,2.9439,2.9434,2.9446,2.9467,2.9485,2.9489,2.9493,2.9506,2.9511,2.945,2.945,2.945,0,2.9159,2.92,2.9205,2.9234,2.9249,2.9244,2.9275,2.9289,2.9319,2.9328,2.9319,2.937,2.9385,2.9425,2.9435,2.9447,2.9453,2.9444,2.9489,2.9493,2.9496,2.9509,2.9514,2.9451,2.9451,2.9451,2.9451,0,2.9223,2.9251,2.9275,2.9301,2.9319,2.9349,2.9356,2.9372,2.9372,2.9378,2.9412,2.9428,2.9453,2.9463,2.9464,2.9501,2.9495,2.9488,2.9471,2.9503,2.9514,2.9519,2.9453,2.9453,2.9452,2.9452,0,0,2.9288,2.9312,2.932,2.933,2.9352,2.9373,2.94,2.9424,2.9435,2.9455,2.9476,2.951,2.9501,2.9515,2.9517,2.9533,2.9563,2.9522,2.9523,2.9527,2.96,2.9604,2.961,2.956,2.9561,2.9561,2.9597,0,2.9336,2.9385,2.9387,2.9431,2.9454,2.9447,2.947,2.9484,2.949,2.9509,2.9515,2.9537,2.9526,2.9534,2.9549,2.9556,2.9577,2.9554,2.9576,2.9577,2.957,2.9616,2.9622,2.9655,2.9602,2.9603,2.9603,0,2.94,2.9418,2.9463,2.9476,2.9486,2.9507,2.9525,2.9545,2.9559,2.9561,2.9574,2.9572,2.9597,2.9579,2.9611,2.9595,2.9604,2.9608,2.9609,2.961,2.9591,2.9616,2.9666,2.967,2.9611,2.961,2.961,0,2.9437,2.9473,2.9503,2.9512,2.9529,2.9543,2.9551,2.9564,2.9576,2.9591,2.9598,2.9617,2.9627,2.964,2.9641,2.9629,2.9671,2.9656,2.9672,2.9671,2.9681,2.968,2.973,2.969,2.969,2.969,2.9689,0,2.9489,2.9516,2.9519,2.9538,2.9566,2.9567,2.9595,2.9601,2.9611,2.9629,2.9624,2.964,2.9642,2.9658,2.9659,2.9682,2.9688,2.9688,2.9688,2.9688,2.9687,2.9693,2.969,2.9691,2.9691,2.969,2.969,0,2.9536,2.9539,2.9571,2.9583,2.9586,2.9606,2.9615,2.9631,2.9635,2.9656,2.9662,2.9667,2.9685,2.9687,2.9709,2.9709,2.9736,2.9735,2.9731,2.973,2.9745,2.9742,2.98,2.9806,2.9763,2.9763,2.9764,0,2.9568,2.9588,2.96,2.9611,2.9619,2.9637,2.9648,2.9648,2.9659,2.9674,2.9687,2.9704,2.9718,2.9746,2.975,2.9765,2.9763,2.9781,2.9765,2.9762,2.9759,2.9757,2.9757,2.9784,2.9785,2.9785,2.9785,0,2.9623,2.9622,2.9639,2.9654,2.9667,2.9679,2.9691,2.97,2.97,2.9713,2.973,2.974,2.976,2.9776,2.979,2.9795,2.9789,2.979,2.9794,2.9794,2.979,2.9789,2.9737,2.9789,2.9789,2.9788,2.9788,2.9788,2.9661,2.9676,2.9686,2.9703,2.9711,2.972,2.9734,2.9738,2.9752,2.9768,2.9767,2.9785,2.9793,2.9811,2.9817,2.983,2.9823,2.983,2.9831,2.9832,2.9832,2.9788,2.9833,2.9832,2.9832,2.9832,2.9832,0,2.9713,2.9718,2.9733,2.9747,2.9759,2.9752,2.9763,2.9773,2.9789,2.9797,2.9809,2.9827,2.9841,2.9845,2.9858,2.9867,2.9864,2.987,2.9868,2.9869,2.9839,2.9833,2.9871,2.9871,2.9871,2.9871,2.9871,2.9871,2.9741,2.9765,2.9765,2.979,2.9795,2.9812,2.9818,2.9825,2.9832,2.9851,2.9862,2.9864,2.987,2.9882,2.9893,2.9894,2.9898,2.9904,2.9903,2.9875,2.9871,2.9868,2.9862,2.9906,2.9906,2.9932,2.9932,2.9932]}]]